{"data":{"norad_id":36605,"epoch":"2026-09-19T10:46:56.573760Z","epoch_age_seconds":105264,"freshness":"FRESH","line1":"1 36605U 10030A   26262.44926590  .00000024  00000+0  43503-5 0  9996","line2":"2 36605  97.4471 268.8219 0001926  88.9610 271.1846 15.19151721900955","mean_motion":15.19151721,"eccentricity":0.0001926,"inclination_deg":97.4471,"raan_deg":268.8219,"arg_perigee_deg":88.961,"mean_anomaly_deg":271.1846,"bstar":4.3503e-6,"rev_number":90095,"period_min":94.789742202451,"perigee_km":507.07665682059,"apogee_km":509.72935203029,"semimajor_km":6886.5400044254,"source":"CELESTRAK","updated_at":"2026-09-20T09:00:33.890965Z"}}